RH
9 10 13 14 20 19 17 20 51 70 75 76 90 87 62 64 65 39 26 26 27 28 29 26 28 29 30 36 60 52 62 58 71 53 54 57 70 70 63 37 49 50 48 50
9 10 8 10 18 19 16 18 68 65 75 86 85 73 61 63 62 44 31 30 30 28 33 32 34 31 31 36 44 67 62 63 63 50 84 72 73 69 69 69 47 47 48 52
9 8 7 10 17 23 17 26 57 62 80 70 67 81 75 61 61 61 43 34 31 37 31 41 38 33 37 41 42 48 63 66 63 66 53 52 64 66 56 63 47 59 48 46
8 7 7 10 18 20 20 23 49 51 61 73 48 78 79 83 73 72 62 37 32 30 36 33 36 33 32 35 38 44 55 66 66 66 68 70 57 50 72 59 69 59 58 54
8 9 10 14 18 16 19 14 56 77 38 88 49 50 65 74 75 75 60 43 38 33 35 26 27 35 31 32 35 41 50 62 70 77 69 54 61 47 41 72 63 73 58 60
8 8 11 12 13 15 14 15 22 29 28 48 44 35 69 83 74 55 45 35 29 30 22 27 30 32 37 28 32 37 51 61 62 65 60 63 58 64 60 59 50 45 50 48
11 14 10 11 13 16 16 17 36 37 32 31 31 24 51 47 44 42 41 31 25 21 23 24 28 35 38 33 32 36 52 63 60 59 57 59 57 60 60 62 52 47 39 45
11 18 12 12 13 16 18 20 34 43 25 22 20 23 36 29 30 33 36 35 31 27 21 21 30 43 36 40 32 36 54 63 60 56 58 60 60 49 46 54 82 42 39 41
11 13 10 11 11 12 16 25 18 24 18 33 36 36 29 23 28 30 35 39 38 32 24 21 26 28 35 33 50 38 53 60 57 54 67 62 60 59 52 65 56 49 59 46
14 15 10 10 10 9 10 12 20 21 31 27 33 55 34 36 31 30 34 34 37 34 44 22 29 43 35 38 43 41 48 56 53 49 56 55 57 58 56 57 60 63 65 58
11 14 15 11 12 12 11 11 15 16 14 24 20 41 30 34 32 32 30 34 37 50 86 51 26 36 73 37 43 44 48 53 50 46 49 52 48 50 55 52 57 57 62 65
12 13 15 12 8 7 8 10 12 20 27 15 17 44 45 32 28 31 32 35 40 48 62 38 37 48 43 53 63 62 52 49 48 47 54 54 51 49 48 51 52 55 63 77
15 14 18 22 9 8 10 9 8 9 10 19 16 56 39 38 37 31 35 40 53 52 51 43 42 70 61 67 65 64 64 69 52 59 50 54 55 53 52 51 52 54 60 65
28 15 17 24 20 12 13 11 9 7 12 12 14 45 44 41 48 53 47 50 51 50 50 57 57 71 61 62 64 74 85 70 67 76 74 72 61 57 50 51 54 55 57 60
17 23 20 23 21 13 10 10 9 11 11 13 16 27 35 40 50 66 63 63 59 59 62 69 72 85 83 90 80 81 77 93 95 88 82 73 70 69 65 63 62 57 59 57
20 32 25 36 21 15 12 9 10 10 10 11 14 18 73 35 45 60 71 70 70 74 74 71 72 83 86 82 79 84 87 87 82 90 84 72 72 72 71 71 71 70 68 60
33 37 29 25 16 17 21 16 13 12 10 13 22 54 60 50 57 67 79 87 81 91 93 78 70 78 72 72 75 84 84 87 96 88 90 74 77 76 76 74 75 80 75 76
27 42 38 42 38 28 43 41 22 26 24 22 25 32 62 54 66 66 67 78 89 90 92 92 93 92 81 80 85 92 90 84 88 83 78 82 85 79 80 78 83 81 78 78
21 33 75 53 90 42 26 28 26 27 40 28 28 40 50 53 55 65 64 66 67 74 84 92 87 93 94 92 90 91 86 81 81 85 76 73 71 76 83 94 97 96 92 95
20 27 30 29 37 59 50 28 20 22 38 34 34 38 43 53 47 60 66 68 70 70 76 81 82 84 87 91 92 90 91 89 86 81 79 81 72 75 83 93 93 90 91 86
29 28 26 28 34 65 36 35 21 35 54 31 38 37 40 60 59 65 62 70 62 65 70 71 70 73 78 75 80 89 91 91 86 79 79 69 65 69 69 76 79 82 85 91
34 40 29 26 36 80 28 25 37 43 32 30 35 38 59 64 62 63 63 61 64 64 62 58 62 64 57 67 80 86 89 90 90 86 73 71 68 54 60 71 72 78 79 76
37 34 61 40 56 38 29 33 30 28 36 35 34 35 51 53 65 71 75 64 60 58 55 50 53 59 57 60 65 81 84 85 88 89 86 76 66 61 64 67 68 59 64 54
29 31 32 36 34 34 32 29 29 29 32 33 32 33 37 47 63 69 69 61 60 58 59 59 55 56 65 66 70 74 77 70 70 78 80 79 71 64 58 46 46 44 43 44
27 32 31 33 38 35 32 32 30 30 29 32 36 37 37 43 58 60 62 62 55 49 44 42 45 49 51 51 52 52 57 56 52 52 48 51 46 56 55 55 56 46 57 58
23 26 29 32 32 33 41 35 29 29 30 32 36 41 40 49 60 59 63 58 52 51 51 56 49 48 49 50 52 54 51 51 48 47 39 34 31 37 36 44 48 82 79 80
Wind_Speed
15 13 17 20 21 5 9 13 20 15 14 15 13 10 16 12 6 12 18 19 18 18 18 14 15 15 13 14 11 8 7 10 5 10 7 7 4 2 1 7 9 4 5 5
12 16 17 19 12 10 13 3 21 11 16 6 11 17 20 16 17 15 14 17 17 16 18 15 15 15 14 13 14 11 8 10 7 7 2 3 3 3 3 4 7 8 6 5
14 15 18 17 15 10 16 3 17 20 20 14 14 10 20 21 13 17 15 18 17 17 20 10 14 14 14 13 13 13 11 10 8 1 3 3 5 5 5 6 7 5 8 7
14 8 15 14 14 15 16 4 15 23 24 10 22 5 16 18 19 18 14 18 16 20 7 24 16 16 17 15 13 11 13 10 8 7 5 8 3 5 1 7 3 6 5 5
14 9 12 16 17 16 1 11 18 35 14 11 17 7 12 21 20 24 20 19 24 17 28 22 18 16 13 15 14 14 11 12 8 9 7 7 7 6 6 5 8 5 3 5
17 9 11 17 18 12 4 10 7 8 5 12 14 7 13 16 25 26 27 26 27 30 19 22 18 18 11 15 14 15 13 11 11 8 7 5 4 0 4 5 5 7 9 7
14 11 15 15 18 8 10 12 5 8 8 2 22 12 10 25 31 31 22 24 21 20 22 20 19 12 17 16 14 15 14 11 10 10 9 8 5 5 5 6 7 4 5 7
14 14 16 11 17 12 17 13 7 9 11 10 10 6 13 21 28 24 23 20 14 17 18 20 16 25 16 12 14 15 16 13 12 10 9 7 5 6 6 6 1 5 5 4
15 18 20 15 14 18 16 16 18 14 19 5 10 10 11 12 22 19 25 24 23 20 17 20 19 17 11 17 10 14 15 14 13 13 8 9 7 4 2 1 3 7 5 5
10 11 19 17 14 16 18 16 17 11 19 15 13 10 13 17 16 17 23 27 28 24 11 18 17 12 15 10 15 14 16 14 13 13 11 10 9 7 6 4 4 3 3 3
13 10 10 12 18 18 13 15 16 15 17 6 8 3 2 20 18 19 21 21 22 9 5 20 13 22 7 19 9 13 15 15 13 11 10 9 9 8 8 7 6 6 5 7
14 9 14 19 15 20 18 18 15 12 20 14 4 5 4 6 14 18 15 19 22 23 25 12 9 3 21 13 10 11 14 14 13 12 12 10 8 8 9 8 9 7 6 6
4 10 13 8 16 18 19 16 21 20 18 16 13 5 6 3 5 11 23 16 15 16 15 15 10 5 16 10 9 9 5 1 4 8 12 11 10 10 9 9 7 7 8 8
8 15 13 3 6 10 17 21 20 19 15 16 13 21 16 15 13 8 11 11 10 17 14 11 11 8 13 14 12 6 3 1 3 3 5 10 11 9 9 9 8 9 7 9
10 17 16 7 18 22 19 21 17 18 19 17 4 12 21 20 19 14 11 11 11 11 14 13 14 11 11 9 10 9 10 6 5 4 2 6 7 7 7 6 8 10 10 9
9 10 11 13 10 17 11 20 15 18 20 15 6 15 3 20 21 18 14 11 11 8 11 14 16 10 10 12 12 10 9 7 5 2 4 5 4 3 4 5 7 8 8 9
9 5 6 9 10 10 6 1 9 7 9 7 8 4 8 20 12 14 13 8 7 9 9 9 8 7 7 11 11 10 8 8 5 7 4 4 2 4 5 4 6 7 7 4
7 4 9 1 12 17 9 17 11 7 8 7 3 7 9 17 15 12 11 12 10 9 9 9 7 8 8 8 10 9 6 7 8 7 5 4 5 2 2 4 4 4 4 3
7 4 6 5 2 9 15 13 11 14 10 5 5 14 11 12 15 11 9 8 11 12 10 8 9 9 8 8 5 7 7 5 5 5 5 5 5 5 5 5 5 5 2 6
6 9 12 4 11 3 8 12 6 9 9 20 11 7 5 3 5 10 10 12 13 14 12 11 10 9 9 7 7 9 7 7 5 4 3 5 7 6 6 4 1 1 5 6
6 8 10 1 4 5 2 2 18 13 7 10 5 4 8 2 10 18 15 12 12 13 14 14 12 11 8 8 9 10 8 8 6 6 5 3 4 6 5 7 6 6 4 4
1 5 6 4 9 5 9 1 3 5 4 8 8 9 14 12 8 12 13 14 15 16 15 14 13 12 11 9 7 8 8 4 4 6 3 4 3 3 5 4 4 5 6 7
5 6 4 9 5 7 8 10 8 7 7 6 6 5 11 6 11 12 11 14 14 14 12 11 11 12 10 9 9 7 4 6 6 5 4 4 3 5 5 4 5 5 3 4
3 3 5 1 8 7 5 7 8 8 9 8 5 3 6 11 14 12 10 12 13 13 14 11 10 11 9 7 8 6 3 5 5 5 6 5 3 3 4 5 3 2 2 2
5 6 6 5 8 5 4 6 5 6 7 8 7 4 3 12 11 11 9 11 10 10 10 9 11 10 9 8 7 7 4 4 5 5 5 6 6 4 7 10 9 7 9 8
7 5 5 2 6 5 9 4 0 2 4 5 5 4 6 6 10 8 7 8 10 10 8 7 8 9 8 8 6 5 5 4 2 3 4 2 4 7 7 6 7 16 11 10
Wind_Direction
202 212 212 207 217 266 278 252 128 145 158 173 201 188 179 191 238 230 184 175 174 169 150 166 150 151 154 149 142 170 109 143 160 165 177 147 154 131 309 127 127 125 147 144
182 220 225 238 217 260 253 255 105 128 130 112 173 188 180 186 208 225 179 206 170 165 145 165 154 161 155 156 153 145 161 162 175 210 23 75 136 113 197 98 153 181 170 156
216 207 234 226 219 224 245 261 147 160 170 214 190 196 177 189 218 245 242 222 184 148 156 181 169 176 148 154 164 164 164 186 189 235 168 168 118 143 166 143 165 175 172 179
240 229 204 217 236 218 230 218 107 163 159 183 193 155 181 166 200 233 247 214 205 159 175 172 181 178 169 158 161 170 161 176 197 195 178 133 187 185 220 180 150 148 190 207
213 200 215 213 220 214 280 251 129 242 145 87 198 244 138 165 187 217 236 187 224 179 182 188 172 169 174 161 165 157 174 168 211 146 167 172 211 184 183 75 135 112 120 245
248 217 209 223 222 212 57 247 220 279 185 214 158 185 168 174 184 210 214 201 188 196 199 161 188 166 164 166 166 150 167 168 171 177 184 210 154 21 95 123 147 183 173 191
227 222 217 238 211 180 216 221 181 227 213 218 164 210 159 181 189 191 190 200 205 195 183 165 174 177 161 163 173 150 163 170 180 184 185 188 178 163 178 174 216 195 173 182
209 185 212 207 233 186 213 215 211 209 220 175 141 214 130 180 171 191 191 194 206 218 197 175 172 159 153 213 171 161 158 171 181 187 187 192 175 210 202 189 327 190 164 199
195 246 177 190 226 241 198 220 245 270 277 167 256 107 123 152 156 173 181 178 207 212 223 186 163 158 197 168 164 166 160 174 183 180 184 188 185 223 320 325 204 153 203 156
318 217 178 195 205 239 262 209 232 229 266 271 139 219 137 166 182 177 178 185 187 201 242 191 161 151 166 197 169 174 162 179 180 184 175 183 197 192 209 209 234 307 288 200
277 269 177 204 203 210 209 246 231 244 249 264 265 132 251 160 172 177 180 185 179 175 352 276 180 155 83 178 158 164 169 176 183 195 171 209 182 185 193 202 219 218 222 222
237 276 242 196 217 221 224 218 238 239 236 271 293 237 353 61 152 164 165 160 175 172 175 237 185 149 156 147 156 193 184 171 192 185 177 190 196 203 191 219 191 199 203 218
261 231 246 276 188 201 234 211 231 226 254 250 264 107 91 143 181 157 154 157 158 178 199 196 198 105 117 128 170 167 160 305 213 192 181 183 194 198 225 202 225 199 189 201
306 264 255 241 299 246 216 235 219 240 216 250 240 129 167 159 133 115 120 120 144 172 190 170 143 130 123 154 161 144 125 303 323 326 301 179 205 211 218 213 201 227 218 200
252 255 282 117 259 273 190 217 225 231 253 230 6 27 153 157 142 151 150 149 170 164 152 155 154 143 150 134 150 145 134 95 36 297 244 235 219 217 218 243 254 211 222 231
290 321 256 152 239 280 196 198 209 217 244 254 111 240 97 115 119 138 151 166 164 136 163 175 163 165 168 164 175 143 128 125 153 206 289 231 213 214 212 211 236 248 242 224
294 261 266 255 180 215 210 234 259 239 215 317 350 11 8 96 111 110 110 110 143 114 121 121 151 162 187 177 171 159 168 176 170 211 188 210 235 221 226 242 230 232 225 249
266 10 311 8 315 228 105 337 345 15 18 359 324 54 143 98 97 97 118 127 116 111 103 95 99 88 91 111 122 120 140 178 187 193 182 191 173 171 350 252 256 243 218 209
159 134 309 257 287 285 138 93 345 333 57 27 4 86 100 106 107 103 119 143 137 123 112 100 95 93 79 71 88 115 116 151 155 151 179 183 192 141 108 71 18 324 281 77
155 203 254 245 277 239 87 356 335 294 174 352 16 100 100 143 226 128 124 118 123 124 121 115 107 104 99 81 69 86 82 89 84 120 172 150 136 149 134 109 183 28 44 109
223 244 239 355 218 95 284 303 310 256 42 348 46 325 115 163 32 117 134 129 121 117 115 115 110 103 106 98 100 85 80 65 25 41 21 101 113 107 119 150 157 126 118 98
257 307 254 218 267 75 316 185 331 4 12 6 10 50 89 99 122 134 134 131 128 125 131 124 118 113 110 107 103 104 102 105 42 31 66 105 117 127 114 123 116 115 133 133
281 354 15 346 54 104 66 77 64 16 37 21 341 57 101 127 128 137 139 140 131 126 120 114 116 109 108 117 117 102 126 148 158 121 29 42 76 97 114 121 123 133 159 159
156 320 264 321 137 107 97 87 66 35 34 18 12 53 111 122 141 139 140 141 144 150 144 133 125 119 112 112 102 111 130 137 153 147 157 164 163 129 156 173 165 189 185 228
22 145 240 190 148 137 146 80 34 47 33 41 39 61 123 132 151 154 157 148 149 136 130 137 129 121 115 110 119 123 125 154 148 160 155 162 150 200 88 57 17 73 48 18
184 221 208 41 81 172 99 113 80 39 45 37 52 79 96 125 147 158 158 146 148 141 126 121 118 111 116 120 110 106 119 125 157 160 178 157 155 177 141 139 87 51 59 50